loading
|
Showing default

SJ-19, 61444

Orbit data source: Space-Track

SJ-19, 61444 is a payload satellite owned by CASC (CN) in LEO that was launched on Fri, 27 Sep 2024 UTC via a CHANG ZHENG 2D launch vehicle from the Jiuquan Satellite Launch Center, China (JSC). Payloads include a variety of satellites, spacecraft, and rockets equipped with specific instruments for various scientific and technological missions. These include communications satellites like Starlink; space stations such as the ISS; scientific satellites like the Hubble; Earth observation satellites from companies like Planet Labs, Umbra, and HawkEye 360; GPS; miniature CubeSats for education and research; and military/defense satellites.

Loading next visibility...
Next conjunction unknown
Loading greatness...
SJ-19 details
Identifier
61444, 2024-177A
Orbit
LEO
Last TLE update4 days ago
Origin
Flag of CNCASC (CN / PRC)
ManufacturerCAST
MissionDecayed spacecraft
Bus & MotorFSW-1, Unknown motor
Mass~0 kg wet, ~1,200 kg dry
Launch date (UTC)
2024-09-27 (3 weeks ago)
Launch vehicle
CHANG ZHENG 2D
Launch site
Jiuquan Satellite Launch Center, China (JSC)
Object type
Payload
Rocket body
Debris
Shape & HBRUnknown
Radar Cross SectionLarge (>1 m²)

Expand to show TLE details & history

TLE from 4 days ago
0 SJ-19
1 61444U 24177A   24284.70845001  .00015258  00000-0  90833-4 0  9993
2 61444  41.6010  76.8644 0006944  34.8351 325.2950 15.77608314  2241
Epoch: 2024-10-10T17:00Z
Definitive object data (Epoch: 2024-10-10T17:00:10.08Z)
Latitude-0.00001°
Longitude162.03327°
Altitude332.999 km
Speed7.713 km/s
True Right ascension05h 07m 27s
True Declination0° 00' 00"
Sunlit
Object was in full shadow at TLE epoch
Predictive object data (real-time)
Latitude-5.007°
Longitude131.96056°
Altitude335.788 km
Speed7.71 km/s
Apparent Right ascension00h 55m 31s
Apparent Declination-27° 36' 05"
Sunlit
Object is in full shadow
Predictive observer data (real-time)
Local Sidereal Time09:43:58
Azimuth272.261° WNW
Elevation-48.858°
Doppler factor1
Orbital elements
Apogee344.11 km
Perigee334.781 km
Semi-major axis6,717.583 km
Eccentricity0.0006944
Inclination41.601°
RAAN76.8644°
Arg. of periapsis34.8351°
True anomaly325.24966°
Mean anomaly325.295°
Eccentric anomaly325.27233°
Mean motion3.94206 °/min
BSTAR0.000090833
Period91.32 mins
No data available
No data available
Other satellites on launch #177 in the year 2024 (2024-09-27 UTC)

SJ-19 Visibility forecast

Observer location: 39.9160978°, -105.1181434

Span
Click to sort rows by Start time (UTC) header in descending order
Start Az.
Max El. time (UTC)
Max El. Az.
Max El.
End time (UTC)
End Az.
5 mins2024-10-14 15:33:48.957Z283.992° WNW2024-10-14 15:36:48.957Z53.345° ENE39.88°2024-10-14 15:38:48.957Z89.467° E
4 mins2024-10-15 14:19:48.957Z284.919° WNW2024-10-15 14:21:48.957Z41.208° NE37.334°2024-10-15 14:23:48.957Z78.58° E